Location: Columbia
(38.9520°N, 92.3340°W)
Time: 01:48:11
(UTC-05:00)

Iridium 15 - Visible Passes

Search period start: 03 September 2015 00:00
Search period end: 13 September 2015 00:00
Orbit: 776 x 779 km, 86.4° (Epoch: 02 September)

Date Brightness Start Highest point End Pass type
(mag) Time Alt. Az. Time Alt. Az. Time Alt. Az.
03 Sep 6.2 21:41:33 50° ENE 21:41:33 50° ENE 21:46:16 10° NNE visible
03 Sep 8.4 23:22:00 17° W 23:22:22 17° WNW 23:25:38 10° NW visible
04 Sep 7.0 21:07:49 27° E 21:07:50 27° E 21:12:14 10° NNE visible
04 Sep 7.5 22:48:15 31° W 22:48:30 31° W 22:53:05 10° NNW visible
05 Sep 7.6 20:34:02 14° E 20:34:32 15° E 20:37:28 10° NE visible
05 Sep 6.4 22:14:28 57° WSW 22:14:48 59° W 22:19:57 10° N visible
06 Sep 5.9 21:40:38 66° SE 21:41:16 75° E 21:46:29 10° N visible
06 Sep 8.8 23:21:05 10° W 23:22:44 12° WNW 23:24:20 10° NW visible
07 Sep 6.5 21:06:46 35° ESE 21:07:49 39° E 21:12:40 10° NNE visible
07 Sep 8.1 22:47:13 19° W 22:48:45 22° WNW 22:52:40 10° NNW visible
08 Sep 7.2 20:32:50 18° ESE 20:34:28 21° E 20:38:25 10° NNE visible
08 Sep 7.2 22:13:16 31° WSW 22:14:57 40° W 22:19:50 10° NNW visible
09 Sep 7.8 19:59:51 10° E 20:01:12 11° ENE 20:02:53 10° ENE visible
09 Sep 6.1 21:39:15 37° SSW 21:41:20 76° W 21:46:34 10° N visible
10 Sep 6.0 21:05:07 27° SSE 21:07:49 58° E 21:12:57 10° N visible
10 Sep 8.7 22:45:59 10° WSW 22:49:05 15° WNW 22:51:55 10° NW visible
11 Sep 6.8 20:30:51 14° SE 20:34:25 31° E 20:39:00 10° NNE visible
11 Sep 7.9 22:11:15 12° SW 22:15:10 28° W 22:19:34 10° NNW visible
12 Sep 7.5 19:57:58 10° ESE 20:01:06 17° E 20:04:27 10° NE visible
12 Sep 6.8 21:36:44 12° SSW 21:41:27 51° W 21:46:31 10° N visible
